TimePDT,TemperatureF,Dew PointF,Humidity,Sea Level PressureIn,VisibilityMPH,Wind Direction,Wind SpeedMPH,Gust SpeedMPH,PrecipitationIn,Events,Conditions,WindDirDegrees,DateUTC
12:53 AM,69.1,45.0,42,29.96,10.0,Calm,Calm,-,N/A,,Clear,0,2013-03-20 07:53:00
1:53 AM,66.0,45.0,47,29.96,10.0,WSW,3.5,-,N/A,,Clear,240,2013-03-20 08:53:00
2:53 AM,66.0,46.0,48,29.94,10.0,Calm,Calm,-,N/A,,Clear,0,2013-03-20 09:53:00
3:53 AM,66.9,44.1,44,29.92,10.0,SE,3.5,-,N/A,,Clear,140,2013-03-20 10:53:00
4:53 AM,64.9,46.0,50,29.91,10.0,SSW,4.6,-,N/A,,Clear,200,2013-03-20 11:53:00
5:53 AM,66.0,45.0,47,29.94,10.0,Calm,Calm,-,N/A,,Clear,0,2013-03-20 12:53:00
6:53 AM,64.0,45.0,50,29.94,10.0,Calm,Calm,-,N/A,,Mostly Cloudy,0,2013-03-20 13:53:00
7:53 AM,64.9,45.0,48,29.95,10.0,NW,3.5,-,N/A,,Clear,310,2013-03-20 14:53:00
8:53 AM,68.0,45.0,43,29.95,10.0,Calm,Calm,-,N/A,,Clear,0,2013-03-20 15:53:00
9:53 AM,73.9,42.1,32,29.95,10.0,SW,3.5,-,N/A,,Clear,230,2013-03-20 16:53:00
10:53 AM,79.0,41.0,26,29.94,10.0,East,5.8,-,N/A,,Clear,80,2013-03-20 17:53:00
11:53 AM,80.1,44.1,28,29.93,10.0,East,5.8,-,N/A,,Clear,80,2013-03-20 18:53:00
12:53 PM,82.9,41.0,23,29.91,10.0,ESE,8.1,-,N/A,,Clear,120,2013-03-20 19:53:00
1:53 PM,84.0,37.9,19,29.88,10.0,ESE,8.1,-,N/A,,Clear,110,2013-03-20 20:53:00
2:53 PM,86.0,39.9,20,29.85,10.0,SW,6.9,-,N/A,,Clear,230,2013-03-20 21:53:00
3:53 PM,84.9,37.0,18,29.83,10.0,NW,11.5,24.2,N/A,,Overcast,310,2013-03-20 22:53:00
4:53 PM,86.0,30.9,14,29.82,10.0,NW,13.8,27.6,N/A,,Mostly Cloudy,320,2013-03-20 23:53:00
5:53 PM,80.1,35.1,20,29.81,10.0,NW,26.5,36.8,N/A,,Clear,320,2013-03-21 00:53:00
6:53 PM,77.0,37.0,24,29.82,10.0,NW,20.7,31.1,N/A,,Clear,310,2013-03-21 01:53:00
7:53 PM,77.0,37.0,24,29.82,10.0,NW,18.4,25.3,N/A,,Clear,320,2013-03-21 02:53:00
8:53 PM,73.0,44.1,35,29.82,10.0,NW,15.0,27.6,N/A,,Clear,310,2013-03-21 03:53:00
9:53 PM,71.1,48.0,44,29.82,9.0,NW,18.4,-,N/A,,Clear,320,2013-03-21 04:53:00
11:53 PM,70.0,46.9,44,29.80,10.0,Calm,Calm,-,N/A,,Clear,0,2013-03-21 06:53:00